TimeCST,TemperatureF,Dew PointF,Humidity,Sea Level PressureIn,VisibilityMPH,Wind Direction,Wind SpeedMPH,Gust SpeedMPH,PrecipitationIn,Events,Conditions,WindDirDegrees,DateUTC
12:53 AM,46.9,28.0,48,30.10,10.0,NW,4.6,-,N/A,,Clear,320,2012-02-21 06:53:00
1:53 AM,41.0,30.0,65,30.11,10.0,SSW,8.1,-,N/A,,Clear,200,2012-02-21 07:53:00
2:53 AM,39.9,30.9,70,30.11,10.0,SSW,5.8,-,N/A,,Clear,210,2012-02-21 08:53:00
3:53 AM,41.0,28.9,62,30.11,10.0,WSW,8.1,-,N/A,,Clear,240,2012-02-21 09:53:00
4:53 AM,42.1,28.9,60,30.12,10.0,SW,8.1,-,N/A,,Clear,230,2012-02-21 10:53:00
5:53 AM,36.0,28.9,76,30.12,10.0,Calm,Calm,-,N/A,,Clear,0,2012-02-21 11:53:00
6:53 AM,35.1,28.0,76,30.12,10.0,SW,3.5,-,N/A,,Partly Cloudy,220,2012-02-21 12:53:00
7:53 AM,39.9,32.0,73,30.13,10.0,SW,4.6,-,N/A,,Partly Cloudy,230,2012-02-21 13:53:00
8:53 AM,48.0,33.1,56,30.15,10.0,SW,6.9,-,N/A,,Partly Cloudy,220,2012-02-21 14:53:00
9:53 AM,54.0,30.0,40,30.15,10.0,South,5.8,-,N/A,,Partly Cloudy,190,2012-02-21 15:53:00
10:53 AM,57.9,26.1,30,30.14,10.0,SSE,8.1,-,N/A,,Partly Cloudy,150,2012-02-21 16:53:00
11:53 AM,62.1,28.0,28,30.11,10.0,South,13.8,-,N/A,,Scattered Clouds,170,2012-02-21 17:53:00
12:53 PM,64.0,30.0,28,30.07,10.0,South,15.0,25.3,N/A,,Scattered Clouds,190,2012-02-21 18:53:00
1:53 PM,66.9,33.1,28,30.03,10.0,South,16.1,25.3,N/A,,Scattered Clouds,180,2012-02-21 19:53:00
2:53 PM,68.0,34.0,28,29.99,10.0,SSW,16.1,20.7,N/A,,Partly Cloudy,200,2012-02-21 20:53:00
3:53 PM,69.8,35.6,28,29.96,10.0,South,18.4,-,N/A,,Partly Cloudy,180,2012-02-21 21:53:00
4:53 PM,68.0,41.0,37,29.92,10.0,South,16.1,-,N/A,,Partly Cloudy,190,2012-02-21 22:53:00
5:53 PM,64.9,48.9,56,29.90,10.0,South,12.7,-,N/A,,Partly Cloudy,180,2012-02-21 23:53:00
6:53 PM,64.9,52.0,63,29.89,10.0,South,13.8,-,N/A,,Partly Cloudy,180,2012-02-22 00:53:00
7:53 PM,63.0,54.0,72,29.88,10.0,South,13.8,-,N/A,,Partly Cloudy,180,2012-02-22 01:53:00
8:53 PM,61.0,54.0,78,29.88,10.0,South,12.7,-,N/A,,Partly Cloudy,190,2012-02-22 02:53:00
9:53 PM,62.1,55.0,78,29.88,10.0,South,15.0,-,N/A,,Clear,190,2012-02-22 03:53:00
10:53 PM,60.1,54.0,80,29.87,10.0,South,12.7,-,N/A,,Clear,190,2012-02-22 04:53:00
11:53 PM,57.9,53.1,84,29.86,10.0,South,9.2,-,N/A,,Clear,190,2012-02-22 05:53:00